[[{"header":{"parameterUnit":"m.s-1","parameterCategory":1,"la1":30.2991,"la2":30.254,"lo1":-89.0895,"lo2":-89.0444,"dy":0.0017,"dx":0.0017,"nx":28,"ny":28,"refTime":"2023-09-24T21:00:00:Z","depth":0,"parameterNumber":2,"parameterNumberName":"U-component_of_WINDS"},"data":[0,0,0,0,0,0,0,0,0,0,0,0,0,0,0,0,0,0,0,0,0,0,0,0,0,0,0,0,0,0,0,0,0,0,0,0,0,0,0,0,0,0,0,0,0,0,0,0,0,0,0,0,0,0,0,0,0,0,0.8565,0.8565,0,0.8542,0.8542,0.8542,0.8528,0.8528,0.8528,0.8528,0.8503,0.8502,0.8502,0,0,0,0,0,0,0,0,0,0,0,0,0,0.8594,0.8593,0.8565,0.8565,0.8564,0.8542,0.8542,0.8541,0.8528,0.8528,0.8528,0.8528,0.8503,0.8502,0.8502,0,0,0,0,0,0,0,0,0,0,0,0,0,0.8577,0.8593,0.8565,0.8555,0.8554,0.8542,0.8542,0.8541,0.8528,0.8528,0.8528,0.8528,0.8503,0.8502,0.8502,0.8498,0,0,0.8499,0.8498,0,0,0,0,0,0,0,0,0.8578,0.8576,0.8557,0.8556,0.8554,0.8538,0.8543,0.8527,0.8528,0.8538,0.8528,0.8528,0.8514,0.8513,0.8508,0.8496,0.8495,0.8499,0.8498,0.8498,0.8497,0,0,0,0,0,0,0,0.8579,0.8577,0.8556,0.8557,0.8555,0.8551,0.8548,0.854,0.8527,0.8537,0.8536,0.8533,0.8514,0.8509,0.8508,0.8495,0.8499,0.8498,0.8497,0.8497,0.8475,0.8475,0,0,0,0,0,0,0.8582,0.8578,0.8557,0.8555,0.8566,0.855,0.8547,0.8543,0.8527,0.8524,0.8533,0.8533,0.8511,0.8509,0.8507,0.8499,0.8498,0.8497,0.8496,0.8475,0.8475,0.8475,0,0,0,0,0,0,0.8583,0.8581,0.8558,0.8566,0.8563,0.855,0.8545,0.8543,0.8538,0.8524,0.8522,0.8532,0.8511,0.8508,0.8499,0.8498,0.8496,0.8496,0.8475,0.8475,0.8475,0.8485,0,0,0,0,0,0,0.8584,0.8581,0.858,0.8566,0.8563,0.8552,0.8545,0.8542,0.8537,0.8536,0.8522,0.8519,0.8511,0.8501,0.8498,0.8497,0.8495,0.8475,0.8475,0.8475,0.8485,0.8485,0.8486,0,0,0,0,0,0.8585,0.8584,0.858,0.8578,0.8562,0.8552,0.8549,0.854,0.8537,0.8535,0.8526,0.852,0.8499,0.85,0.8497,0.8495,0.8475,0.8475,0.8475,0.8484,0.8485,0.8486,0,0,0,0,0,0,0.8599,0.8583,0.8578,0.8573,0.8564,0.8549,0.8547,0.8541,0.8532,0.8531,0.8519,0.8516,0.8508,0.8501,0.8503,0.8489,0.8486,0.8486,0.8494,0.8495,0.8495,0.8497,0.8494,0,0,0,0,0,0.8601,0.8595,0.8581,0.8578,0.8573,0.8561,0.8556,0.8549,0.8539,0.8535,0.8525,0.8515,0.8505,0.85,0.8491,0.8483,0.8479,0.8481,0.8481,0.8482,0.8481,0.8474,0.8474,0.8475,0.8475,0.8475,0,0,0.8606,0.8596,0.8594,0.858,0.8572,0.8565,0.8558,0.8551,0.8545,0.8534,0.8525,0.8517,0.8504,0.8495,0.8491,0.8489,0.8479,0.8482,0.8482,0.8481,0.8474,0.8474,0.8474,0.8475,0.8475,0.8475,0,0,0.8611,0.8604,0.86,0.8591,0.8579,0.857,0.8569,0.8555,0.8549,0.854,0.8531,0.8523,0.8508,0.8498,0.8492,0.849,0.8483,0.8487,0.849,0.8483,0.8483,0.8483,0.848,0.848,0.8487,0.8487,0.8487,0,0.8619,0.8608,0.8598,0.8591,0.8584,0.8573,0.8568,0.856,0.8545,0.854,0.8538,0.8517,0.8509,0.8496,0.8495,0.8491,0.8488,0.8489,0.8484,0.8484,0.8483,0.8481,0.848,0.8487,0.8487,0.8487,0.8487,0,0.8617,0.861,0.8607,0.8593,0.8586,0.858,0.8567,0.8561,0.8554,0.8545,0.8534,0.8522,0.8509,0.8506,0.8499,0.8492,0.8491,0.8487,0.8483,0.8484,0.8481,0.848,0.8488,0.8488,0.8488,0.8488,0,0,0.8632,0.861,0.8609,0.8601,0.8586,0.8579,0.8571,0.8558,0.8552,0.8542,0.8534,0.852,0.8515,0.8508,0.85,0.8494,0.849,0.849,0.8489,0.8489,0.8479,0.8481,0.848,0.8486,0.8486,0.8485,0.8479,0,0.8633,0.8619,0.8608,0.8598,0.8589,0.8578,0.857,0.8559,0.855,0.854,0.853,0.8519,0.8515,0.851,0.8504,0.8492,0.8488,0.8493,0.8476,0.8476,0.8479,0.8479,0.8482,0.8477,0.8478,0.8478,0.8478,0,0.8634,0.8623,0.8612,0.8595,0.8591,0.8584,0.857,0.8562,0.8548,0.8541,0.8532,0.8523,0.8512,0.8509,0.8493,0.8496,0.8489,0.8482,0.8481,0.8479,0.8477,0.8475,0.8475,0.8474,0.8476,0.8477,0.8477,0,0.8643,0.8626,0.8616,0.861,0.859,0.8586,0.8577,0.8563,0.8555,0.8543,0.8537,0.8524,0.8516,0.8505,0.8492,0.8491,0.8475,0.8473,0.8468,0.8469,0.8465,0.8466,0.8463,0.8462,0.8462,0.8462,0.8462,0,0.8646,0.8639,0.862,0.8614,0.8605,0.8591,0.8582,0.8573,0.856,0.855,0.8539,0.853,0.8514,0.8503,0.8492,0.8479,0.8476,0.8469,0.8466,0.8469,0.847,0.8464,0.8463,0.8462,0.8462,0.8462,0.8462,0,0.8655,0.8642,0.863,0.8612,0.8607,0.8601,0.8585,0.8577,0.8567,0.8555,0.8551,0.8534,0.852,0.8506,0.8487,0.8479,0.8465,0.8462,0.847,0.8469,0.8464,0.8464,0.8457,0.8454,0.8457,0.8457,0.8457,0,0.8657,0.8651,0.8632,0.8625,0.8616,0.8605,0.8597,0.8583,0.8574,0.8556,0.855,0.8535,0.8522,0.8499,0.8485,0.8469,0.8465,0.8463,0.8462,0.8465,0.8463,0.8463,0.8461,0.8463,0.8463,0.8463,0.8463,0,0.8661,0.8655,0.8643,0.8629,0.8619,0.8607,0.8595,0.8589,0.8572,0.8563,0.8548,0.8538,0.8517,0.8501,0.8484,0.8473,0.8465,0.8464,0.8461,0.8464,0.8469,0.8464,0.847,0.8464,0.8464,0.8464,0.8464,0.8464,0.8666,0.8659,0.8644,0.8631,0.862,0.8608,0.8599,0.8587,0.8574,0.8557,0.8549,0.8533,0.8516,0.8492,0.8481,0.8468,0.8466,0.8463,0.8462,0.8462,0.8461,0.8471,0.8465,0.8465,0.8465,0.8465,0.8465,0,0.8668,0.8657,0.8645,0.8628,0.8617,0.861,0.8595,0.8586,0.8572,0.8558,0.8545,0.8526,0.851,0.8494,0.8476,0.8468,0.8464,0.8464,0.8464,0.8461,0.8465,0.8468,0.8468,0.8468,0.8468,0.8468,0.8468,0.8468,0.8668,0.8656,0.8647,0.8628,0.8617,0.8601,0.8593,0.8581,0.8569,0.8549,0.8536,0.8525,0.8509,0.8489,0.8474,0.8469,0.8462,0.8463,0.8457,0.8461,0.8461,0.8461,0.8464,0.8462,0.8462,0.8454,0.8454,0.8454]},{"header":{"parameterUnit":"m.s-1","parameterCategory":1,"la1":30.2991,"la2":30.254,"lo1":-89.0895,"lo2":-89.0444,"dy":0.0017,"dx":0.0017,"nx":28,"ny":28,"refTime":"2023-09-24T21:00:00:Z","depth":0,"parameterNumber":3,"parameterNumberName":"V-component_of_WINDS"},"data":[0,0,0,0,0,0,0,0,0,0,0,0,0,0,0,0,0,0,0,0,0,0,0,0,0,0,0,0,0,0,0,0,0,0,0,0,0,0,0,0,0,0,0,0,0,0,0,0,0,0,0,0,0,0,0,0,0,0,1.924,1.924,0,1.9315,1.9316,1.9317,1.9318,1.9317,1.9316,1.9315,1.939,1.9393,1.9396,0,0,0,0,0,0,0,0,0,0,0,0,0,1.9091,1.9094,1.9239,1.924,1.9241,1.9315,1.9316,1.9317,1.9318,1.9317,1.9316,1.9315,1.9389,1.9392,1.9396,0,0,0,0,0,0,0,0,0,0,0,0,0,1.916,1.9094,1.9239,1.9251,1.9253,1.9315,1.9316,1.9318,1.9319,1.9317,1.9316,1.9314,1.9388,1.9392,1.9396,1.9451,0,0,1.9409,1.9411,0,0,0,0,0,0,0,0,1.9156,1.9165,1.9248,1.925,1.9252,1.9306,1.9291,1.9362,1.9319,1.9293,1.9315,1.9314,1.9363,1.9369,1.9386,1.9455,1.9458,1.941,1.9412,1.9414,1.9415,0,0,0,0,0,0,0,1.9151,1.9162,1.9269,1.9249,1.9252,1.9251,1.9259,1.9305,1.9335,1.9296,1.9296,1.9305,1.9364,1.9382,1.9388,1.9459,1.941,1.9413,1.9416,1.9418,1.9573,1.9575,0,0,0,0,0,0,1.9145,1.9158,1.9267,1.9272,1.92,1.9255,1.9264,1.929,1.9335,1.934,1.9306,1.9305,1.9376,1.9383,1.9391,1.9456,1.9414,1.9418,1.9421,1.9572,1.9574,1.9575,0,0,0,0,0,0,1.9141,1.9154,1.9264,1.9215,1.9229,1.9259,1.9288,1.9292,1.9311,1.9343,1.9348,1.932,1.9375,1.9385,1.9436,1.9459,1.942,1.9424,1.957,1.9572,1.9574,1.9589,0,0,0,0,0,0,1.9137,1.9153,1.9176,1.9216,1.9231,1.9309,1.929,1.9295,1.9319,1.9318,1.9357,1.9362,1.9374,1.9429,1.944,1.9464,1.9427,1.9568,1.9571,1.9574,1.9587,1.9592,1.9596,0,0,0,0,0,1.9132,1.9176,1.9177,1.919,1.926,1.9311,1.932,1.9334,1.9321,1.9342,1.9362,1.9361,1.9455,1.9435,1.9447,1.9472,1.9567,1.957,1.9574,1.9585,1.9591,1.9596,0,0,0,0,0,0,1.9138,1.9182,1.9183,1.9242,1.9273,1.9311,1.9339,1.934,1.9375,1.9372,1.9387,1.9396,1.9447,1.9465,1.9441,1.9527,1.9509,1.9515,1.9513,1.9519,1.9524,1.9518,1.9431,0,0,0,0,0,1.9146,1.9185,1.9221,1.9269,1.9285,1.9309,1.9332,1.934,1.9372,1.9384,1.9408,1.9438,1.9474,1.9498,1.9533,1.9589,1.9597,1.9613,1.9617,1.9621,1.9626,1.9654,1.9662,1.9587,1.9587,1.9587,0,0,1.9164,1.9193,1.9216,1.9271,1.9296,1.9334,1.932,1.9361,1.9389,1.939,1.944,1.9458,1.9492,1.9546,1.9571,1.9562,1.9648,1.9625,1.9628,1.9631,1.9659,1.9666,1.9672,1.9589,1.9589,1.9588,0,0,1.9215,1.9241,1.9284,1.9309,1.9346,1.9362,1.9372,1.941,1.9422,1.9472,1.9474,1.9506,1.9568,1.9592,1.9612,1.967,1.9669,1.9681,1.9705,1.9733,1.9738,1.9744,1.9763,1.9769,1.9686,1.9686,1.9686,0,1.9231,1.929,1.9305,1.9346,1.9369,1.9373,1.9415,1.9438,1.9485,1.95,1.949,1.9568,1.9591,1.9649,1.9663,1.968,1.969,1.9676,1.9737,1.9742,1.9747,1.9765,1.9772,1.9687,1.9687,1.9687,1.9687,0,1.9307,1.9347,1.9377,1.9422,1.9449,1.949,1.951,1.9535,1.9541,1.9557,1.9606,1.9634,1.9674,1.9689,1.9695,1.9747,1.974,1.9734,1.9716,1.9755,1.9772,1.978,1.9688,1.9688,1.9688,1.9687,0,0,1.9365,1.9417,1.9428,1.9448,1.9489,1.9519,1.9559,1.9599,1.9619,1.9651,1.9683,1.9735,1.9729,1.9752,1.976,1.9785,1.9826,1.9775,1.9776,1.9782,1.9883,1.9887,1.9895,1.9826,1.9827,1.9828,1.988,0,1.9419,1.9492,1.9506,1.9569,1.9605,1.9608,1.9643,1.967,1.9686,1.9717,1.9734,1.977,1.976,1.9773,1.9798,1.9816,1.9846,1.9813,1.9855,1.9856,1.9845,1.9904,1.9909,1.9957,1.9887,1.9888,1.9889,0,1.9493,1.9526,1.9592,1.9627,1.9642,1.9673,1.971,1.9741,1.9771,1.978,1.9805,1.981,1.985,1.9831,1.9885,1.9861,1.9879,1.989,1.9892,1.9896,1.9874,1.9908,1.9972,1.9979,1.99,1.9899,1.9898,0,1.9526,1.9588,1.9635,1.9652,1.9693,1.9715,1.9733,1.9762,1.9785,1.9816,1.983,1.9865,1.9884,1.9911,1.9924,1.9909,1.9976,1.9959,1.9984,1.9983,1.9997,1.9996,2.0063,2.001,2.001,2.001,2.001,0,1.9585,1.9625,1.965,1.9679,1.9723,1.9738,1.9781,1.9798,1.9824,1.9855,1.986,1.9888,1.9905,1.9935,1.9946,1.9988,1.9997,2.0004,2.0006,2.0003,2.0002,2.0014,2.0011,2.0012,2.0012,2.0011,2.0011,0,1.9629,1.9648,1.97,1.9735,1.9744,1.9775,1.9804,1.9831,1.9846,1.9885,1.9895,1.9918,1.9954,1.997,2.0014,2.0021,2.0068,2.0069,2.0058,2.0059,2.0082,2.0079,2.0159,2.017,2.0111,2.0112,2.0112,0,1.9665,1.9696,1.9734,1.9755,1.9774,1.9808,1.9831,1.9846,1.9869,1.9905,1.9927,1.9964,1.9993,2.005,2.007,2.0103,2.0104,2.0129,2.0109,2.0104,2.0102,2.01,2.0102,2.0133,2.0133,2.0134,2.0134,0,1.9726,1.9733,1.9766,1.9802,1.9829,1.9858,1.9886,1.9903,1.9922,1.9947,1.9984,2.0007,2.0052,2.0087,2.0121,2.0138,2.0139,2.014,2.0148,2.0144,2.0136,2.0139,2.0067,2.0138,2.0138,2.0138,2.0137,2.0137,1.9766,1.9793,1.9823,1.9859,1.9882,1.9908,1.9934,1.9952,1.9984,2.0022,2.0029,2.0067,2.0095,2.0141,2.0159,2.0188,2.0182,2.0193,2.0195,2.0198,2.0198,2.0132,2.0195,2.0195,2.0195,2.0194,2.0194,0,1.9826,1.9845,1.9878,1.9917,1.9945,1.9944,1.9974,1.9997,2.0032,2.0058,2.0087,2.0128,2.0161,2.0184,2.0217,2.0236,2.0237,2.0244,2.0242,2.0246,2.0203,2.0193,2.0243,2.0243,2.0243,2.0243,2.0243,2.0243,1.986,1.9905,1.9915,1.997,1.9989,2.0028,2.0045,2.0068,2.0089,2.0135,2.0163,2.0177,2.0201,2.0236,2.0266,2.0271,2.0283,2.029,2.0295,2.0254,2.0249,2.0244,2.0235,2.0293,2.0293,2.0335,2.0336,2.0336]}]]